IGO316H VIDP-VILH

Flight info

Callsign IGO316H
Flight time 1h 1m
Altitude 35000
Route SP6K SP W39 LELAX/N0444F340 W39 LEH
Aircraft A320/M-SDE3FGHIRWY/LB1

Departure

Time 2026-04-26 15:56
Airport Indira Gandhi International Airport (VIDP)

Arrival

Time 2026-04-26 16:57
Airport Leh Kushok Bakula Rimpochee Airport (VILH)
Time Latitude Longitude Altitude Speed Heading
2026-04-26 15:26 28.56361 77.11663 774 ft 0 kts 82°
2026-04-26 15:47 28.56360 77.11654 774 ft 2 kts 81°
2026-04-26 15:48 28.56357 77.11638 774 ft 2 kts 79°
2026-04-26 15:48 28.56354 77.11621 774 ft 2 kts 78°
2026-04-26 15:48 28.56351 77.11604 774 ft 2 kts 88°
2026-04-26 15:48 28.56353 77.11587 774 ft 2 kts 114°
2026-04-26 15:49 28.56361 77.11573 774 ft 2 kts 142°
2026-04-26 15:49 28.56375 77.11565 774 ft 2 kts 169°
2026-04-26 15:49 28.56384 77.11564 774 ft 0 kts 185°
2026-04-26 15:51 28.56334 77.11558 774 ft 12 kts 185°
2026-04-26 15:51 28.56308 77.11557 774 ft 1 kts 174°
2026-04-26 15:52 28.56303 77.11565 774 ft 9 kts 129°
2026-04-26 15:52 28.56286 77.11642 774 ft 9 kts 65°
2026-04-26 15:52 28.56315 77.11705 774 ft 9 kts 76°
2026-04-26 15:52 28.56305 77.11737 774 ft 6 kts 132°
2026-04-26 15:53 28.56275 77.11744 774 ft 4 kts 178°
2026-04-26 15:53 28.56229 77.11746 774 ft 9 kts 176°
2026-04-26 15:53 28.56163 77.11759 774 ft 10 kts 169°
2026-04-26 15:53 28.56079 77.11771 774 ft 14 kts 173°
2026-04-26 15:54 28.56051 77.11775 774 ft 2 kts 173°
2026-04-26 15:54 28.56018 77.11779 774 ft 7 kts 177°
2026-04-26 15:54 28.55971 77.11752 774 ft 7 kts 239°
2026-04-26 15:54 28.55972 77.11727 774 ft 2 kts 293°
2026-04-26 15:55 28.55976 77.11715 774 ft 0 kts 290°
2026-04-26 15:55 28.55989 77.11668 774 ft 26 kts 285°
2026-04-26 15:55 28.56111 77.11149 772 ft 111 kts 284°
2026-04-26 15:55 28.56369 77.10036 824 ft 170 kts 285°
2026-04-26 15:56 28.56680 77.08751 1544 ft 179 kts 286°
2026-04-26 15:56 28.57033 77.07298 2185 ft 198 kts 287°
2026-04-26 15:56 28.57410 77.05750 2740 ft 216 kts 287°
2026-04-26 15:56 28.57925 77.04029 3276 ft 236 kts 300°
2026-04-26 15:57 28.59053 77.02596 3928 ft 252 kts 324°
2026-04-26 15:57 28.60669 77.01889 4565 ft 261 kts 351°
2026-04-26 15:57 28.62524 77.01870 5178 ft 267 kts 356°
2026-04-26 15:57 28.63763 77.01901 5589 ft 269 kts 356°
2026-04-26 15:58 28.66239 77.01921 6382 ft 272 kts 354°
2026-04-26 15:58 28.68181 77.01906 6996 ft 274 kts 354°
2026-04-26 15:58 28.70097 77.01868 7611 ft 277 kts 353°
2026-04-26 15:58 28.72036 77.01823 8228 ft 279 kts 353°
2026-04-26 15:59 28.73980 77.01778 8852 ft 282 kts 353°
2026-04-26 15:59 28.75953 77.01738 9503 ft 285 kts 353°
2026-04-26 15:59 28.77952 77.01702 10089 ft 288 kts 353°
2026-04-26 15:59 28.79935 77.01670 10699 ft 290 kts 353°
2026-04-26 16:00 28.81966 77.01640 11312 ft 292 kts 353°
2026-04-26 16:00 28.84001 77.01612 11944 ft 295 kts 353°
2026-04-26 16:00 28.86066 77.01588 12586 ft 297 kts 353°
2026-04-26 16:00 28.88150 77.01564 13245 ft 300 kts 353°
2026-04-26 16:01 28.90258 77.01633 13857 ft 305 kts 360°
2026-04-26 16:01 28.92375 77.02027 14457 ft 311 kts
2026-04-26 16:01 28.94439 77.02749 15062 ft 320 kts 14°
2026-04-26 16:01 28.96591 77.03595 15689 ft 331 kts 15°
2026-04-26 16:02 28.98802 77.04480 16328 ft 341 kts 15°
2026-04-26 16:02 29.01075 77.05386 16983 ft 349 kts 15°
2026-04-26 16:02 29.02600 77.05992 17351 ft 354 kts 15°
2026-04-26 16:02 29.04166 77.06610 17859 ft 359 kts 15°
2026-04-26 16:03 29.08141 77.08172 18846 ft 368 kts 15°
2026-04-26 16:03 29.09759 77.08804 19227 ft 372 kts 16°
2026-04-26 16:03 29.12269 77.09782 19670 ft 382 kts 16°
2026-04-26 16:03 29.14825 77.10777 20097 ft 390 kts 16°
2026-04-26 16:04 29.17407 77.11783 20538 ft 394 kts 16°
2026-04-26 16:04 29.20015 77.12801 20966 ft 397 kts 17°
2026-04-26 16:04 29.22640 77.13827 21409 ft 400 kts 17°
2026-04-26 16:04 29.25293 77.14863 21859 ft 404 kts 17°
2026-04-26 16:05 29.27966 77.15907 22319 ft 407 kts 17°
2026-04-26 16:05 29.30658 77.16960 22780 ft 410 kts 17°
2026-04-26 16:05 29.33361 77.18016 23243 ft 414 kts 17°
2026-04-26 16:05 29.36104 77.19088 23662 ft 417 kts 17°
2026-04-26 16:06 29.38860 77.20167 24053 ft 419 kts 17°
2026-04-26 16:06 29.41628 77.21252 24457 ft 422 kts 17°
2026-04-26 16:06 29.44410 77.22344 24873 ft 424 kts 17°
2026-04-26 16:06 29.47209 77.23441 25289 ft 427 kts 17°
2026-04-26 16:07 29.50040 77.24549 25710 ft 429 kts 17°
2026-04-26 16:07 29.52862 77.25656 26129 ft 432 kts 17°
2026-04-26 16:07 29.55722 77.26778 26591 ft 434 kts 17°
2026-04-26 16:07 29.58593 77.27906 27024 ft 437 kts 17°
2026-04-26 16:08 29.61436 77.29023 27471 ft 440 kts 17°
2026-04-26 16:08 29.64342 77.30164 27927 ft 443 kts 17°
2026-04-26 16:08 29.67272 77.31315 28396 ft 445 kts 17°
2026-04-26 16:08 29.70244 77.32484 28873 ft 447 kts 17°
2026-04-26 16:09 29.73147 77.33627 29341 ft 448 kts 17°
2026-04-26 16:09 29.76088 77.34782 29824 ft 449 kts 17°
2026-04-26 16:09 29.79075 77.35957 30249 ft 450 kts 16°
2026-04-26 16:09 29.82044 77.37130 30675 ft 451 kts 16°
2026-04-26 16:10 29.85014 77.38303 31107 ft 452 kts 16°
2026-04-26 16:10 29.88003 77.39485 31551 ft 453 kts 16°
2026-04-26 16:10 29.90991 77.40670 31992 ft 453 kts 16°
2026-04-26 16:10 29.93972 77.41852 32443 ft 452 kts 15°
2026-04-26 16:11 29.96970 77.42906 32911 ft 450 kts 11°
2026-04-26 16:11 30.00050 77.43722 33387 ft 447 kts
2026-04-26 16:11 30.03060 77.44248 33827 ft 443 kts
2026-04-26 16:11 30.06138 77.44542 34255 ft 439 kts 358°
2026-04-26 16:12 30.09194 77.44729 34624 ft 439 kts 358°
2026-04-26 16:12 30.18484 77.45330 34706 ft 448 kts 358°
2026-04-26 16:13 30.24709 77.45801 34709 ft 447 kts 359°
2026-04-26 16:13 30.30915 77.46286 34717 ft 447 kts 359°
2026-04-26 16:14 30.37119 77.46775 34736 ft 447 kts 359°
2026-04-26 16:15 30.46406 77.47509 34756 ft 446 kts 358°
2026-04-26 16:15 30.52614 77.47997 34770 ft 446 kts 358°
2026-04-26 16:16 30.61882 77.48727 34799 ft 444 kts 358°
2026-04-26 16:16 30.68013 77.49211 34810 ft 444 kts 358°
2026-04-26 16:17 30.74177 77.49695 34838 ft 444 kts 358°
2026-04-26 16:17 30.80342 77.50184 34860 ft 444 kts 358°
2026-04-26 16:18 30.89542 77.50912 34884 ft 432 kts 358°
2026-04-26 16:19 30.95465 77.51395 34892 ft 417 kts 358°
2026-04-26 16:19 30.98374 77.51636 34898 ft 411 kts 357°
2026-04-26 16:20 31.06937 77.52305 34911 ft 415 kts 357°
2026-04-26 16:20 31.15677 77.52986 34921 ft 420 kts 357°
2026-04-26 16:21 31.21553 77.53446 34933 ft 421 kts 357°
2026-04-26 16:21 31.27354 77.53918 34941 ft 421 kts 358°
2026-04-26 16:22 31.33215 77.54402 34954 ft 421 kts 358°
2026-04-26 16:22 31.39068 77.54884 34969 ft 422 kts 358°
2026-04-26 16:23 31.44909 77.55368 34981 ft 421 kts 358°
2026-04-26 16:23 31.50769 77.55855 34985 ft 420 kts 358°
2026-04-26 16:24 31.56606 77.56333 35003 ft 421 kts 357°
2026-04-26 16:24 31.62433 77.56812 35019 ft 422 kts 358°
2026-04-26 16:25 31.68315 77.57298 35056 ft 423 kts 358°
2026-04-26 16:25 31.74191 77.57782 35080 ft 423 kts 358°
2026-04-26 16:26 31.79078 77.58187 35108 ft 423 kts 358°
2026-04-26 16:26 31.85908 77.58756 35123 ft 424 kts 358°
2026-04-26 16:27 31.91811 77.59245 35151 ft 425 kts 358°
2026-04-26 16:27 31.97716 77.59735 35173 ft 425 kts 358°
2026-04-26 16:28 32.03623 77.60228 35187 ft 424 kts 358°
2026-04-26 16:28 32.09520 77.60719 35197 ft 425 kts 358°
2026-04-26 16:29 32.15396 77.61209 35209 ft 424 kts 358°
2026-04-26 16:29 32.21282 77.61697 35205 ft 426 kts 358°
2026-04-26 16:30 32.27213 77.62195 35240 ft 425 kts 358°
2026-04-26 16:30 32.33063 77.62683 35243 ft 426 kts 358°
2026-04-26 16:31 32.39037 77.63570 35247 ft 431 kts
2026-04-26 16:31 32.44808 77.65448 35223 ft 436 kts 15°
2026-04-26 16:32 32.49571 77.67558 35231 ft 435 kts 16°
2026-04-26 16:32 32.56156 77.70469 35225 ft 433 kts 15°
2026-04-26 16:33 32.61843 77.72943 35212 ft 434 kts 15°
2026-04-26 16:33 32.67504 77.75388 35220 ft 435 kts 15°
2026-04-26 16:34 32.73132 77.77823 35216 ft 432 kts 15°
2026-04-26 16:34 32.78814 77.80286 35200 ft 435 kts 15°
2026-04-26 16:35 32.84511 77.82757 35214 ft 437 kts 15°
2026-04-26 16:35 32.90240 77.85242 35215 ft 439 kts 15°
2026-04-26 16:36 32.95985 77.87738 35220 ft 441 kts 15°
2026-04-26 16:36 33.01786 77.90262 35231 ft 443 kts 15°
2026-04-26 16:37 33.07676 77.92833 35244 ft 445 kts 15°
2026-04-26 16:37 33.12578 77.94975 35282 ft 442 kts 15°
2026-04-26 16:38 33.15435 77.96231 35128 ft 431 kts 15°
2026-04-26 16:38 33.18205 77.97450 34689 ft 419 kts 15°
2026-04-26 16:38 33.20947 77.98646 34224 ft 423 kts 15°
2026-04-26 16:38 33.23744 77.99857 33703 ft 429 kts 16°
2026-04-26 16:39 33.26547 78.01067 33176 ft 428 kts 14°
2026-04-26 16:39 33.29457 78.01861 32667 ft 421 kts
2026-04-26 16:39 33.32349 78.01917 32143 ft 417 kts 351°
2026-04-26 16:39 33.35190 78.01302 31539 ft 415 kts 341°
2026-04-26 16:40 33.37875 78.00064 30945 ft 414 kts 333°
2026-04-26 16:40 33.40464 77.98588 30352 ft 412 kts 333°
2026-04-26 16:40 33.43052 77.97126 29673 ft 408 kts 334°
2026-04-26 16:40 33.45630 77.95716 29011 ft 404 kts 335°
2026-04-26 16:41 33.48186 77.94351 28364 ft 399 kts 335°
2026-04-26 16:41 33.50683 77.93027 27730 ft 386 kts 335°
2026-04-26 16:41 33.53103 77.91746 27095 ft 373 kts 336°
2026-04-26 16:41 33.55415 77.90520 26503 ft 362 kts 336°
2026-04-26 16:42 33.57712 77.89298 25907 ft 353 kts 336°
2026-04-26 16:42 33.59922 77.88116 25323 ft 344 kts 336°
2026-04-26 16:42 33.62089 77.86955 24750 ft 337 kts 336°
2026-04-26 16:42 33.64214 77.85817 24182 ft 330 kts 336°
2026-04-26 16:43 33.66263 77.84717 23617 ft 324 kts 336°
2026-04-26 16:43 33.68304 77.83620 22961 ft 320 kts 336°
2026-04-26 16:43 33.70330 77.82529 22311 ft 316 kts 336°
2026-04-26 16:43 33.72310 77.81460 21693 ft 312 kts 336°
2026-04-26 16:44 33.74293 77.80385 21068 ft 312 kts 337°
2026-04-26 16:44 33.76276 77.79319 20465 ft 311 kts 337°
2026-04-26 16:44 33.78264 77.78244 19864 ft 308 kts 337°
2026-04-26 16:44 33.80191 77.77204 19295 ft 306 kts 338°
2026-04-26 16:45 33.82128 77.76161 18723 ft 304 kts 338°
2026-04-26 16:45 33.84090 77.75094 18113 ft 304 kts 338°
2026-04-26 16:45 33.85985 77.74065 17502 ft 303 kts 338°
2026-04-26 16:45 33.87973 77.72995 16868 ft 301 kts 338°
2026-04-26 16:46 33.89853 77.71984 16279 ft 298 kts 338°
2026-04-26 16:46 33.91741 77.70944 16023 ft 286 kts 338°
2026-04-26 16:46 33.93499 77.69993 15916 ft 266 kts 338°
2026-04-26 16:46 33.95108 77.69127 15913 ft 236 kts 338°
2026-04-26 16:47 33.96513 77.68360 15883 ft 205 kts 338°
2026-04-26 16:47 33.97735 77.67689 15883 ft 192 kts 338°
2026-04-26 16:47 33.98972 77.67016 15767 ft 197 kts 338°
2026-04-26 16:47 34.00181 77.66264 15583 ft 193 kts 328°
2026-04-26 16:48 34.01245 77.65294 15403 ft 191 kts 320°
2026-04-26 16:48 34.02255 77.64266 15211 ft 189 kts 319°
2026-04-26 16:48 34.03233 77.63252 14995 ft 188 kts 318°
2026-04-26 16:48 34.04242 77.62201 14740 ft 187 kts 318°
2026-04-26 16:49 34.05213 77.61178 14514 ft 185 kts 317°
2026-04-26 16:49 34.06173 77.60164 14506 ft 184 kts 317°
2026-04-26 16:49 34.07152 77.59134 14492 ft 185 kts 317°
2026-04-26 16:49 34.08132 77.58155 14305 ft 186 kts 327°
2026-04-26 16:50 34.09354 77.57713 14036 ft 187 kts 357°
2026-04-26 16:50 34.10664 77.57780 13681 ft 188 kts 360°
2026-04-26 16:50 34.11965 77.57844 13243 ft 186 kts 359°
2026-04-26 16:50 34.13216 77.57630 13013 ft 183 kts 333°
2026-04-26 16:51 34.14238 77.56705 12748 ft 190 kts 315°
2026-04-26 16:51 34.15189 77.55583 12500 ft 187 kts 311°
2026-04-26 16:51 34.15718 77.54257 12553 ft 182 kts 265°
2026-04-26 16:51 34.15272 77.52754 12470 ft 189 kts 244°
2026-04-26 16:52 34.14695 77.51406 12548 ft 177 kts 238°
2026-04-26 16:52 34.14230 77.50569 12498 ft 183 kts 234°
2026-04-26 16:52 34.12924 77.49449 12559 ft 182 kts 183°
2026-04-26 16:52 34.11866 77.50154 12115 ft 184 kts 119°
2026-04-26 16:53 34.11875 77.51692 11083 ft 194 kts 62°
2026-04-26 16:53 34.12691 77.52833 10885 ft 171 kts 47°
2026-04-26 16:53 34.13214 77.54108 11251 ft 178 kts 81°
2026-04-26 16:53 34.12981 77.55615 11641 ft 190 kts 121°
2026-04-26 16:54 34.11939 77.56555 12026 ft 193 kts 168°
2026-04-26 16:54 34.10702 77.56158 12247 ft 189 kts 223°
2026-04-26 16:54 34.10098 77.54781 12479 ft 190 kts 264°
2026-04-26 16:54 34.10274 77.53210 12431 ft 192 kts 279°
2026-04-26 16:55 34.10385 77.51639 12122 ft 192 kts 272°
2026-04-26 16:55 34.10779 77.50138 11794 ft 182 kts 291°
2026-04-26 16:55 34.11149 77.48637 11697 ft 188 kts 285°
2026-04-26 16:55 34.12004 77.47624 11704 ft 175 kts 348°
2026-04-26 16:56 34.13145 77.49669 11005 ft 176 kts 104°
2026-04-26 16:56 34.12880 77.51082 10796 ft 176 kts 94°
2026-04-26 16:56 34.12999 77.52539 10656 ft 175 kts 72°
2026-04-26 16:57 34.13404 77.53922 10650 ft 170 kts 69°
2026-04-26 16:57 34.13681 77.54891 10754 ft 58 kts 71°
2026-04-26 16:57 34.13796 77.55287 10802 ft 16 kts 68°
2026-04-26 16:58 34.13826 77.55381 10810 ft 9 kts 70°
2026-04-26 16:58 34.13839 77.55422 10814 ft 0 kts 59°
2026-04-26 16:58 34.13897 77.55433 10820 ft 8 kts 354°
2026-04-26 16:59 34.13966 77.55422 10827 ft 12 kts 351°
2026-04-26 16:59 34.14127 77.55373 10852 ft 5 kts 338°
2026-04-26 17:00 34.14197 77.55255 10833 ft 18 kts 245°
2026-04-26 17:00 34.14104 77.55119 10820 ft 6 kts 171°
2026-04-26 17:00 34.14093 77.55126 10821 ft 1 kts 144°
2026-04-26 17:01 34.14082 77.55135 10820 ft 2 kts 148°
2026-04-26 17:01 34.14081 77.55136 10820 ft 0 kts 148°